RH
3 3 3 4 4 5 6 23 22 21 18 16 17 20 23 26 27 27 26 25 25 24 23 22 20 20 19 19 20 20 19 18 19 19 17 12 11 17 19 20 21 20 16 18 18 17 16
3 3 3 4 4 5 10 21 19 20 18 24 29 28 25 19 18 15 13 12 11 11 14 16 22 23 23 23 20 23 25 26 25 18 14 12 16 19 17 12 14 15 16 16 16 15 18
4 4 4 4 5 6 8 13 19 18 27 29 22 15 11 11 11 11 10 10 10 10 10 9 10 10 8 10 12 19 25 20 14 12 12 13 12 14 16 19 19 18 17 18 16 14 15
4 4 4 5 6 7 10 16 18 24 30 20 14 12 13 16 14 10 8 8 8 8 9 9 8 8 7 7 12 19 16 14 16 21 27 28 25 22 24 28 26 22 23 20 15 15 28
4 4 5 6 6 9 16 17 19 32 25 16 16 16 18 18 10 6 5 4 4 5 5 6 6 6 7 9 11 13 11 9 9 10 11 17 26 32 34 35 33 34 30 26 24 42 50
4 5 6 7 8 13 18 17 32 32 20 18 17 19 21 18 8 4 4 4 4 4 5 4 4 6 7 8 8 9 13 17 19 22 29 33 38 38 36 38 43 36 47 63 59 52 57
5 6 7 8 10 17 17 27 35 26 19 19 19 22 22 16 7 4 4 4 5 4 4 4 4 5 7 9 11 20 21 21 21 24 30 39 41 25 29 40 49 57 70 69 50 48 62
6 7 9 11 13 18 22 36 31 20 19 20 24 23 17 12 6 4 4 4 5 5 5 4 5 6 13 18 19 20 22 22 22 27 28 38 30 32 42 66 62 54 77 71 51 37 51
8 9 12 13 17 20 37 35 21 20 22 24 25 20 14 9 6 5 4 4 5 5 6 6 11 20 23 21 18 20 18 16 22 21 29 46 29 40 51 55 68 77 84 58 60 46 42
10 13 15 18 17 38 40 27 20 22 24 26 24 20 12 8 7 6 5 5 5 6 8 17 31 26 25 23 22 20 20 26 25 36 43 48 34 38 53 64 70 75 52 55 55 62 65
13 14 19 16 34 43 34 21 21 25 28 26 17 12 10 8 8 7 7 7 7 8 31 26 31 29 30 33 28 24 28 47 55 61 71 50 40 50 57 44 54 61 60 66 68 73 80
14 16 16 23 44 41 25 20 24 28 24 14 10 10 9 10 9 9 9 9 9 11 29 25 34 32 36 27 19 30 62 71 66 65 63 54 49 52 39 47 50 50 66 71 73 76 89
15 15 16 34 46 34 23 22 28 28 15 11 10 10 10 10 10 10 10 10 11 15 20 33 34 29 23 15 31 52 70 61 60 68 62 58 41 34 63 68 58 65 86 84 94 98 87
16 15 19 40 41 26 22 26 28 17 12 12 11 11 11 11 12 12 12 12 12 20 18 26 29 17 15 22 52 59 46 23 58 80 85 72 60 66 77 72 68 56 65 72 94 95 84
16 16 29 41 31 23 24 28 18 13 12 12 12 12 13 13 13 14 14 13 18 25 38 40 17 16 27 53 55 20 18 53 89 97 90 87 73 68 63 49 64 68 62 65 88 75 83
16 20 34 32 25 22 27 21 14 13 14 14 14 13 14 14 15 15 14 16 21 26 23 22 18 26 34 23 17 23 16 52 94 99 94 96 82 56 52 45 33 54 68 70 69 83 93
18 28 28 21 21 25 21 15 14 14 14 14 14 14 15 16 16 16 16 16 17 18 21 23 22 22 28 34 39 26 43 72 84 73 64 55 56 44 32 15 15 22 42 54 74 88 94
22 25 20 20 24 20 16 16 15 14 14 15 15 16 16 17 17 18 19 19 20 22 24 26 24 29 43 42 41 40 45 66 68 68 67 57 48 44 32 13 25 25 62 66 83 85 89
21 17 19 22 19 18 17 16 17 16 16 16 16 17 18 18 17 18 19 18 22 24 26 32 32 30 33 73 75 65 56 58 56 45 56 59 64 60 28 67 85 65 73 84 81 94 90
14 18 22 23 19 17 19 19 19 18 19 18 18 18 17 17 13 11 11 19 21 29 36 43 43 49 79 67 68 68 53 50 50 46 39 61 84 85 62 57 73 57 50 57 64 61 47
18 28 29 20 18 21 21 20 20 20 21 19 19 15 12 10 10 9 11 16 30 32 40 42 65 77 81 94 87 88 90 64 47 47 56 64 83 68 63 56 59 59 48 53 55 53 64
56 51 25 19 29 24 22 21 21 22 22 18 15 11 9 9 9 10 14 33 38 53 49 64 71 73 71 90 97 94 86 61 65 73 93 100 97 83 79 70 79 61 61 65 91 99 99
66 32 22 30 25 26 24 23 24 23 21 16 11 10 10 10 9 11 23 47 63 69 65 70 63 56 61 95 99 90 63 52 74 99 80 98 100 98 86 65 72 78 99 93 98 96 96
34 20 27 25 28 27 27 26 26 22 17 12 11 11 9 9 9 20 44 64 62 73 66 55 50 54 57 56 57 51 52 54 82 83 95 96 91 98 88 90 93 94 99 97 89 83 77
20 21 20 28 30 30 29 28 25 17 13 12 11 9 8 8 13 37 51 56 72 65 58 59 51 68 74 67 62 62 72 48 74 58 68 69 73 81 96 91 55 61 96 80 75 42 61
16 13 26 33 32 32 31 28 18 13 13 12 10 9 8 8 16 34 44 57 67 78 58 58 60 80 74 71 70 87 78 61 60 61 64 67 71 91 84 86 73 64 51 50 68 60 60
11 21 32 34 34 34 31 20 14 14 12 11 10 8 7 8 14 28 36 56 81 81 85 61 74 72 80 80 80 81 78 88 78 80 84 69 76 71 81 88 72 79 82 78 83 82 69
15 29 34 35 36 34 24 15 14 13 12 10 8 7 9 9 14 27 51 71 81 95 69 72 75 90 83 94 97 89 92 62 74 66 95 99 100 96 94 90 96 88 70 87 92 78 77
23 34 36 38 37 28 16 15 14 12 11 9 7 7 8 10 13 49 70 79 59 60 90 75 87 93 98 97 98 83 83 82 93 93 95 98 99 100 100 91 93 78 88 88 98 89 88
Wind_Speed
8 9 10 10 11 12 12 13 17 20 20 21 22 22 22 23 23 23 23 22 22 22 22 22 22 22 23 23 25 23 22 22 22 23 23 21 20 20 20 20 23 26 24 27 22 23 23
8 9 10 11 12 12 12 15 19 22 22 22 23 23 23 23 22 22 21 21 22 21 21 21 20 19 21 22 21 21 21 21 22 20 19 18 18 19 23 23 27 30 30 29 29 25 26
8 9 10 11 12 13 14 17 20 22 23 23 23 23 24 26 26 27 27 25 25 23 23 22 20 20 22 23 20 19 17 14 13 12 14 17 19 23 27 29 29 28 31 27 25 27 29
8 10 11 12 13 14 16 19 21 22 23 22 24 25 27 29 29 26 26 25 24 24 23 22 21 22 21 22 19 14 14 14 19 24 24 25 26 29 32 32 32 32 34 36 29 24 21
9 11 12 13 14 16 18 20 22 22 22 23 26 28 29 30 27 26 25 24 21 19 18 19 19 22 20 13 15 18 23 27 29 27 29 30 29 32 34 30 32 29 28 31 28 17 19
10 11 13 15 16 17 20 21 22 22 22 25 27 30 30 30 28 25 23 23 20 19 16 18 17 12 17 20 24 22 21 20 18 20 19 21 23 27 29 29 27 20 16 18 20 16 14
11 12 15 16 17 19 21 23 23 23 24 26 28 31 32 30 28 24 23 23 22 19 19 19 26 27 24 22 16 14 15 17 18 19 17 19 22 26 22 21 23 23 26 30 30 24 26
12 14 15 17 18 20 21 22 22 24 26 28 31 31 31 29 27 25 24 24 25 24 24 26 25 19 15 14 12 12 13 18 19 18 19 23 25 10 13 13 20 20 25 29 24 20 23
13 15 17 18 19 20 22 23 23 25 28 31 31 31 30 28 27 27 26 24 25 27 26 21 15 12 11 13 12 14 18 23 22 22 19 23 23 21 21 25 23 20 23 27 30 28 26
14 15 17 18 19 21 22 23 24 27 30 31 30 30 28 27 27 27 27 27 28 27 19 8 8 8 11 15 13 15 25 21 24 22 23 20 17 17 15 17 19 24 23 27 25 21 16
15 16 18 19 20 21 22 23 26 29 31 31 30 29 27 26 25 26 27 27 26 25 6 8 9 11 13 15 23 24 20 17 22 21 19 27 26 25 29 29 23 32 22 21 17 15 18
16 17 18 20 21 22 23 25 28 31 31 31 29 27 26 25 25 25 24 25 23 9 5 5 10 13 18 23 27 19 15 17 22 25 22 25 24 21 24 26 24 21 20 22 24 22 7
17 18 20 21 22 22 24 26 29 31 30 30 29 28 27 24 21 23 22 22 12 6 7 7 11 22 30 32 16 13 13 17 18 19 26 31 32 20 22 16 14 9 13 4 1 4 6
18 19 20 22 24 25 26 29 30 30 28 28 27 27 26 24 23 20 20 19 7 10 14 22 23 31 25 19 12 12 21 23 19 17 19 14 16 3 5 10 12 16 13 5 3 2 3
19 20 21 23 24 26 28 31 31 30 28 27 27 26 25 23 20 20 19 6 5 13 15 26 28 18 9 9 13 25 16 13 10 11 7 9 12 2 10 22 14 9 15 14 10 20 7
20 21 22 23 25 28 30 31 29 30 30 29 27 26 23 19 21 20 14 10 11 17 21 22 17 10 15 26 23 11 10 11 9 8 11 7 22 18 16 15 11 12 14 8 7 3 4
20 21 23 25 27 29 30 29 27 28 29 28 26 26 19 21 22 12 14 11 15 15 18 14 17 21 22 21 17 19 7 12 13 13 15 17 11 23 28 21 25 25 17 8 6 6 3
20 21 23 25 28 29 29 29 29 28 27 26 26 22 20 21 14 17 13 13 16 16 16 17 14 17 16 18 20 13 11 10 15 19 21 12 14 25 31 19 13 10 2 2 4 6 5
19 20 22 25 26 26 28 29 31 32 31 29 26 20 19 15 13 16 16 17 13 16 18 15 12 16 21 18 13 9 13 12 20 23 17 22 6 15 20 3 8 6 9 9 16 8 6
19 20 22 24 25 26 27 29 30 30 30 29 25 19 22 14 20 18 18 14 16 17 20 16 20 19 18 23 18 14 28 22 21 26 27 16 19 21 15 15 21 33 31 29 19 12 15
17 18 21 23 25 27 29 30 30 30 28 27 24 19 21 20 22 22 23 20 20 19 13 23 12 15 23 26 28 13 17 32 26 17 18 15 18 17 22 25 25 30 34 30 26 25 23
15 21 23 24 26 30 31 30 28 27 25 22 22 23 24 23 23 24 23 19 19 21 26 18 23 26 27 25 21 28 29 26 27 29 28 27 20 18 26 5 7 21 21 15 5 6 5
21 22 22 25 28 30 30 29 27 25 25 24 24 24 24 25 25 25 21 17 16 23 17 22 27 26 23 16 21 24 23 24 18 18 15 16 12 5 8 13 18 3 7 6 8 8 14
18 19 23 27 29 28 27 28 28 28 27 27 27 28 27 26 26 20 15 14 22 16 26 22 15 17 19 21 23 22 10 8 5 14 14 14 12 7 7 10 3 4 2 9 15 15 19
17 20 25 28 28 28 28 27 27 29 29 30 32 32 31 28 22 15 16 17 14 21 17 15 16 18 20 19 17 13 7 11 6 13 16 18 11 8 3 7 10 8 8 18 22 32 14
19 22 26 28 28 29 27 26 26 28 32 33 34 34 31 28 23 21 18 20 22 20 19 17 20 20 11 15 15 5 4 12 8 10 16 17 11 5 6 2 3 6 18 20 18 27 17
19 23 26 28 28 27 26 26 26 27 31 34 34 34 31 26 25 20 22 21 16 15 21 23 21 17 15 11 12 6 6 9 9 12 21 21 16 6 9 5 6 11 18 17 15 19 33
19 24 27 27 26 25 25 26 27 28 29 32 33 34 30 29 23 24 14 8 15 17 22 21 20 12 16 8 6 7 5 10 9 18 13 12 10 7 10 6 3 20 33 32 38 44 46
21 25 26 25 24 23 24 26 28 30 32 32 29 29 29 27 24 8 9 16 18 16 11 17 16 15 9 11 5 9 14 10 16 11 12 5 11 12 8 18 20 29 33 32 39 45 46
Wind_Direction
351 357 359 355 356 354 359 359 355 351 347 341 337 334 335 333 332 328 326 325 318 319 312 310 306 305 303 303 300 301 297 297 297 292 288 284 273 273 275 280 283 282 283 281 271 270 271
347 352 348 351 350 350 349 348 346 344 342 338 336 335 338 337 337 330 327 324 323 323 318 317 312 310 306 304 305 298 292 293 294 291 285 276 273 271 274 280 283 285 281 277 274 273 276
345 342 344 346 345 345 341 343 341 339 340 338 338 340 339 336 332 325 321 317 315 314 311 311 311 307 303 300 300 291 291 294 285 284 281 277 274 274 280 287 280 279 277 272 268 275 274
335 335 340 340 340 340 338 339 337 339 339 338 336 337 333 331 329 324 317 314 314 313 309 306 304 302 295 297 288 281 291 279 279 280 279 278 274 272 276 280 275 277 278 280 282 275 246
329 332 335 333 334 336 337 337 337 338 338 335 334 333 331 331 330 327 323 321 323 320 311 306 304 297 294 280 277 285 287 284 282 284 279 277 275 273 273 275 279 275 273 277 280 252 248
325 327 327 330 333 335 334 335 336 335 335 332 331 330 329 329 327 328 325 327 328 321 313 310 302 298 285 285 286 289 286 287 292 292 292 286 278 275 280 271 262 274 274 273 265 251 251
321 323 327 330 332 332 335 334 335 334 332 330 329 328 327 328 326 326 327 327 327 324 318 308 298 292 285 287 290 290 292 295 297 300 305 290 286 293 304 287 276 268 269 271 267 267 285
318 323 326 328 328 331 332 330 330 330 330 330 328 328 329 326 325 323 325 329 326 320 318 306 295 284 286 287 293 297 305 314 310 308 302 291 291 302 293 296 263 253 265 270 281 281 295
317 321 326 328 329 330 328 328 330 331 329 330 330 329 329 327 325 323 324 326 324 322 318 299 280 276 280 289 301 295 316 313 303 299 297 286 292 292 281 281 273 259 264 277 287 304 289
316 323 325 326 326 326 326 327 328 329 328 328 327 326 327 326 324 325 326 328 326 328 315 279 254 270 275 287 305 305 312 301 293 299 301 288 300 279 281 292 289 280 282 291 289 284 275
316 320 323 324 324 326 325 325 327 329 328 328 328 326 327 328 327 329 326 326 327 324 341 288 265 272 278 299 302 311 303 287 293 293 288 281 297 298 289 287 291 285 286 282 279 269 268
315 318 320 321 322 324 323 323 327 328 328 328 327 328 329 329 327 326 324 322 324 310 256 264 273 282 291 301 311 303 292 291 295 293 290 293 297 292 298 295 293 290 277 271 272 266 246
313 315 317 318 320 321 320 324 326 327 329 326 327 327 327 327 325 321 323 324 317 229 296 290 292 303 310 312 312 283 289 308 304 307 299 298 296 295 275 284 298 292 266 277 267 182 232
310 312 313 316 320 321 323 325 327 326 328 326 326 327 326 328 326 325 324 321 258 278 291 294 308 307 308 306 299 280 308 308 297 294 302 307 311 276 238 305 310 296 277 231 295 233 223
307 310 313 316 318 320 323 325 328 328 328 328 327 329 328 326 324 324 327 320 276 303 303 308 312 309 301 291 304 308 312 301 300 310 327 315 276 222 279 294 293 286 280 285 273 278 264
306 308 311 314 317 321 324 326 328 327 328 329 330 330 330 325 326 331 334 318 295 300 301 308 311 296 299 307 317 317 306 295 297 304 336 306 301 304 304 302 299 289 293 290 278 248 239
303 308 312 315 319 321 323 325 327 328 329 330 333 335 331 331 331 335 336 320 311 307 310 316 301 294 298 307 306 317 270 274 287 298 328 321 290 284 296 306 302 293 301 279 284 261 275
301 306 311 315 318 322 325 328 330 333 333 334 336 338 332 335 341 341 340 324 314 308 310 310 305 296 296 305 308 304 258 281 298 325 325 334 312 293 306 322 292 265 230 11 16 331 296
299 305 310 315 320 324 326 330 335 336 336 340 342 341 341 346 345 347 335 319 307 305 308 305 295 296 298 305 313 284 288 289 300 304 313 318 275 313 318 114 115 39 7 345 337 330 273
298 306 312 317 321 325 329 334 335 337 340 343 344 347 345 345 352 345 334 326 316 313 313 305 311 307 297 305 315 289 296 297 305 304 305 281 264 249 256 281 288 292 291 301 306 278 273
299 308 314 317 323 329 334 336 338 340 344 344 351 351 353 345 341 338 332 325 317 315 309 314 315 306 315 314 313 311 304 308 315 322 310 295 279 271 275 282 284 280 285 294 290 283 260
301 315 316 323 329 333 336 337 340 342 346 347 349 355 350 345 341 333 328 319 319 320 330 325 323 316 310 304 304 308 314 321 318 318 310 299 283 285 294 294 317 307 301 301 275 12 245
311 309 316 325 332 335 334 336 338 342 345 348 353 349 348 341 337 331 326 319 318 323 327 323 316 315 321 315 304 310 314 312 317 337 318 278 282 267 285 315 309 356 62 61 43 20 10
294 306 321 330 332 333 336 338 339 341 346 350 349 346 347 342 338 335 328 314 311 322 319 330 331 326 322 314 311 316 317 351 348 1 43 36 8 305 288 345 23 106 4 3 343 320 324
296 316 323 325 330 335 337 340 341 342 346 345 344 345 345 345 344 346 326 326 314 325 326 322 339 332 319 323 335 343 15 355 1 341 357 355 355 329 302 330 295 343 309 334 340 318 307
305 313 321 328 333 334 337 341 344 345 341 341 342 342 343 346 342 338 336 334 330 332 341 343 338 338 336 347 346 315 352 336 331 337 335 342 347 288 329 333 302 295 291 298 312 308 270
304 317 324 329 331 333 337 340 342 342 340 338 338 338 341 346 340 339 335 328 328 330 326 336 339 342 341 344 333 335 328 331 334 332 332 351 359 348 330 304 266 269 301 302 316 301 298
310 319 325 327 329 333 336 336 337 339 339 337 335 335 337 342 341 336 334 342 332 325 321 330 333 332 335 342 309 347 309 336 327 336 343 324 319 335 323 301 333 319 316 322 304 302 299
311 319 323 326 328 332 334 335 336 335 336 335 333 333 333 337 337 347 328 311 319 324 329 328 341 334 309 312 330 330 318 328 324 325 330 315 341 334 319 306 312 312 314 315 308 301 301